STARLINK-5759, 55592

Orbit data source: Space-Track

STARLINK-5759, 55592 is a payload satellite owned by SpaceX/Seattle (US) in LEO that was launched on Sun, 12 Feb 2023 UTC via an FALCON 9 launch vehicle from the Air Force Eastern Test Range (AFETR). Payload-class satellites include a variety of spacecraft equipped with specific instruments for various scientific and technological missions. These include communications satellites like Starlink; space stations such as the ISS; scientific satellites like the Hubble; Earth observation satellites from companies like Planet Labs, Umbra, and HawkEye 360; GPS; miniature CubeSats for education and research; and military/defense satellites.

Loading next visibility...
Identifier
55592, 2023-020Z
Orbit
LEO
Country
Flag of USUS
Related business
Manufacturer
SpaceX/Seattle
Mission
Operational Commercial Communications
Bus & Motor
STARLINK, Unknown motor
Mass
305 kg wet, ~290 kg dry
Launch date (UTC)
2023-02-12 (4 years ago)
Launch vehicle
FALCON 9
Launch site
Air Force Eastern Test Range (AFETR)
Object type
Payload
Rocket body
Debris
Shape & HBR
Box + 1 Pan, 10.1 m
Radar Cross Section
13.562 m², Large (>1 m²)

Expand to show TLE details & history
Last TLE update: 12 hours ago

TLE from 12 hours ago
0 STARLINK-5759
1 55592U 23020Z   26263.91560874 -.00000200  00000-0  22591-5 0  9999
2 55592  43.0029 342.3629 0001032 270.5476  89.5258 15.27575566198770
Epoch: 2026-09-20T21:58Z
TLE epoch observation values (Epoch: 2026-09-20T21:58:28.595Z)
Latitude
0.00004°
Longitude
12.94086°
Altitude
482.832 km
Speed
7.626 km/s
True Right ascension
22h 49m 27s
True Declination
0° 00' 00"
Sunlit
Object was in full shadow at epoch
Visualization orbit readout
Latitude
Unknown
Longitude
Unknown
Altitude
Unknown
Speed
Unknown
Apparent Right ascension
Unknown
Apparent Declination
Unknown
Sunlit
N/A
Visualization observer readout
Local Sidereal Time
03:12:03
Azimuth
Unknown
Elevation
Unknown
Doppler factor
Unknown
Orbital elements
Apogee altitude
485.715 km
Perigee altitude
484.299 km
Semi-major axis
6,863.144 km
Eccentricity
0.0001
Inclination
43.0029°
RAAN
342.3629°
Arg. of periapsis
270.5476°
True anomaly
89.53763°
Mean anomaly
89.5258°
Eccentric anomaly
89.53171°
Mean motion
3.81732 °/min
Orbital period
94.31 mins
BSTAR
0.0000022591
Loading maneuver chart data...
Computing Atmospheric mass density...
Loading historical data...
Loading historical data...
Loading historical data...
Loading historical data...
Loading historical data...
Loading historical data...
Loading historical data...

Documentation

Showing up to 5 results
|